Preview of NWS' New Version of Forecast
This preview is not operational and should not be used for support decisions.

Regional Weather Roundup (RWR)

Issued by National Weather Service (NWS)

                            
000
ASUS43 KTOP 210059
RWRKS 

WEATHER ROUNDUP FOR KANSAS
NATIONAL WEATHER SERVICE GOODLAND KS
800 PM CDT TUE AUG 20 2019

NOTE:  "FAIR" INDICATES FEW OR NO CLOUDS BELOW 12,000 FEET WITH NO
SIGNIFICANT WEATHER AND/OR OBSTRUCTIONS TO VISIBILITY.

KSZ001>006-013>018-027>032-041>047-210200-
NORTHWEST KANSAS
  
CITY           SKY/WX    TMP DP  RH WIND       PRES   REMARKS
GOODLAND       CLOUDY    87  70  56 E12       29.96S                  
HAYS           CLEAR     88  65  46 S12       29.82R                  
HILL CITY      CLEAR     89  74  60 E9        29.94R HX  98           
RUSSELL        PTCLDY    88  76  67 S14G22    29.91R HX  99           
$$

KSZ061>065-074>080-084>089-210200-
SOUTHWEST KANSAS
  
CITY           SKY/WX    TMP DP  RH WIND       PRES   REMARKS
DODGE CITY     CLEAR     84  54  35 SE26G40   29.98S                  
GARDEN CITY    CLEAR     89  55  31 S12       29.96R                  
GREAT BEND     CLEAR     84  63  49 SW12      29.93R                  
LIBERAL        CLEAR     91  57  31 S12       29.98S                  
$$

KSZ066>073-081>083-090>101-210200-
SOUTHEAST KANSAS
  
CITY           SKY/WX    TMP DP  RH WIND       PRES   REMARKS
CHANUTE        CLEAR     88  77  69 SE8       29.96S HX 100           
COFFEYVILLE    CLEAR     86  77  74 SE7       29.94S HX  97           
HUTCHINSON     CLEAR     91  71  51 SE7       29.91R HX  97           
MEDICINE LODGE   N/A     87  68  52 CALM      29.91R                  
NEWTON           N/A     86  76  71 SE12      29.93F HX  96           
PARSONS        CLEAR     87  78  74 SE3       29.97S HX 100           
WICHITA INTL   MOCLDY    91  74  57 SE16      29.91S HX 100           
WICHITA JABRA  CLEAR     89  74  60 SE14G23   29.92S HX  98           
WICHITA MCCONL CLEAR     90  72  55 E15       29.93R HX  97           
WINFIELD       CLEAR     88  74  63 SE9       29.95S HX  96           
$$

KSZ007>012-019>026-033>040-048>060-102>105-210200-
NORTHEAST KANSAS
  
CITY           SKY/WX    TMP DP  RH WIND       PRES   REMARKS
CONCORDIA      CLEAR     88  82  82 NE6       29.91R HX 108           
EMPORIA        CLEAR     87  76  69 SE10      29.94R HX  97           
LAWRENCE       CLEAR     88  78  72 SE8       29.92R HX 101           
MANHATTAN      CLEAR     90  78  68 S9        29.87F HX 104           
OLATHE IND     CLEAR     85  78  80 S9        29.95R HX  96           
OLATHE EXE     CLEAR     84  78  82 S8        29.95R HX  95           
SALINA         CLEAR     90  76  63 SE12      29.89S HX 101           
TOPEKA BILLARD CLEAR     87  79  76 E8        29.90S HX 101           
TOPEKA FORBES  CLEAR     89  76  65 S10       29.91F HX 100           
$$